Location: Artiguedieu
(43.5000°N, 0.5454°E)
Time: 22:36:26
(UTC+00:00)

HuskySat-1 - Pass Details

Date: 27 September 2021
Orbit: 446 x 459 km, 51.6° (Epoch: 18 October)

Event Time Altitude Azimuth Distance (km) Brightness Sun altitude
Rises 19:32:41 0° 227° (SW) 2,448 ? -20.0°
Reaches altitude 10° 19:34:49 10° 224° (SW) 1,582 ? -20.3°
Enters shadow 19:37:36 48° 197° (SSW) 604 ? -20.8°
